OpenBCM V1.07b12 (Linux)

Packet Radio Mailbox

DB0FHN

[JN59NK Nuernberg]

 Login: GUEST





  
I0OJJ  > KEPS     22.07.25 02:53l 343 Lines 16342 Bytes #999 (0) @ AMSAT
BID : ORB25203.1
Read: DJ6UX GUEST
Subj: 2Line Orbital Elements 25203.AMSAT
Path: DB0FHN<DB0FFL<OE5XBL<OE6XPE<DB0ERF<DK0WUE<DB0APK<ED1ZAC<GB7CIP<VK2RZ<
      IR0AAB<I0OJJ
Sent: 250722/0025z @:I0OJJ.ITA.EU [Rome] obcm1.08-10-g596e
From: I0OJJ @ I0OJJ.ITA.EU (Gustavo)
To:   KEPS @ AMSAT
X-Info: This message was generated automatically


QST de W1STR

AMSAT Orbital Elements for Amateur Satellites in TLE Format
From Orbital Analysis Office
New England Sci-Tech STEM Education Center
Natick, MA July 22, 2025
To all radio amateurs


These element sets describe the orbits of various satellites 
in use by the amateur radio community. For details see:
www.amsat.org/keplerian-elements-formats/

A daily update of element sets is available at:
www.amsat.org/tle/daily-bulletin.txt
or without bulletin text:
www.amsat.org/tle/dailytle.txt


AO-07
1 07530U 74089B   25202.86078333 -.00000024  00000-0  13975-3 0  9997
2 07530 101.9942 207.5759 0012520  42.9607  25.9514 12.53690273319362
UO-11
1 14781U 84021B   25202.85783489  .00001128  00000-0  12424-3 0  9997
2 14781  97.7570 168.3989 0007468 185.7424 174.3709 14.89482085228932
AO-27
1 22825U 93061C   25202.45577749  .00000065  00000-0  41924-4 0  9992
2 22825  98.7345 264.2155 0008233 358.4136   1.7019 14.30810344659701
FO-29
1 24278U 96046B   25202.67316269 -.00000030  00000-0  79981-5 0  9992
2 24278  98.5702  91.0195 0349092 233.4465 123.4071 13.53250701428712
NOAA-15
1 25338U 98030A   25202.81186151  .00000184  00000-0  93294-4 0  9997
2 25338  98.5339 226.9236 0009280 231.3516 128.6835 14.26999576414426
GO-32
1 25397U 98043D   25202.91115677  .00000051  00000-0  42291-4 0  9996
2 25397  98.9730 182.9196 0002379  87.8651 272.2800 14.24323445404535
ISS
1 25544U 98067A   25202.83091240  .00007383  00000-0  13725-3 0  9990
2 25544  51.6344 135.3507 0002353 107.1014 343.5068 15.49992771520534
NO-44
1 26931U 01043C   25202.62911658  .00000118  00000-0  75065-4 0  9995
2 26931  67.0513  19.1184 0006334 276.8203  83.2178 14.31750777243126
SO-50
1 27607U 02058C   25202.33192609  .00000817  00000-0  11890-3 0  9999
2 27607  64.5527  71.6460 0060827 324.9935  34.7177 14.81723306215412
CO-55
1 27844U 03031E   25202.55715579  .00000266  00000-0  13469-3 0  9997
2 27844  98.6763 210.2893 0010821  68.6326 291.6006 14.24022287144616
CO-57
1 27848U 03031J   25202.59552480  .00000231  00000-0  12102-3 0  9990
2 27848  98.6789 210.3011 0010800  83.8314 276.4095 14.23353433144342
RS-22
1 27939U 03042A   25202.88596927  .00000900  00000-0  15025-3 0  9999
2 27939  98.3314  13.3685 0010405 232.0548 264.2209 14.72431524167057
CO-58
1 28895U 05043F   25202.21353902  .00001328  00000-0  22398-3 0  9991
2 28895  98.2547 347.0979 0014770 170.2819 189.8676 14.71121902 53062
CO-65
1 32785U 08021C   25202.50318526  .00003500  00000-0  25243-3 0  9994
2 32785  97.7872 173.9922 0011771  74.9041 285.3486 15.04752359935387
CO-66
1 32791U 08021J   25202.86013835  .00009419  00000-0  44654-3 0  9997
2 32791  97.7290 183.8731 0004767  49.4266 310.7382 15.19515631936991
RS-30
1 32953U 08025A   25202.81439579  .00000037  00000-0  19315-3 0  9996
2 32953  82.5014 200.9128 0018351 316.7163  43.2474 12.43166454778788
NOAA-19
1 33591U 09005A   25202.82027162  .00000153  00000-0  10559-3 0  9996
2 33591  98.9953 267.7580 0012839 242.1252 117.8620 14.13391953848073
SRMSAT
1 37841U 11058D   25202.51314407  .00000383  00000-0  64417-4 0  9994
2 37841  19.9713 260.7957 0011727 165.3037 222.9609 14.11445768711048
ZACUBE-1
1 39417U 13066B   25202.43406740  .00004002  00000-0  34720-3 0  9994
2 39417  97.7819 159.2390 0041639 272.2816  87.3638 14.96975514631171
Delfi-N3xt
1 39428U 13066N   25202.37080137  .00003681  00000-0  37508-3 0  9996
2 39428  97.8322 119.5645 0082872 222.0632 137.4204 14.88791117625296
GOMX-1
1 39430U 13066Q   25202.82278260  .00001672  00000-0  26403-3 0  9995
2 39430  97.6799  58.8879 0133581  57.5696 303.8348 14.67778951621601
LO-74
1 39440U 13066AA  25202.37984017  .00003713  00000-0  37526-3 0  9996
2 39440  97.8497 146.6588 0062914  43.2995 317.3142 14.90174357627667
AO-73
1 39444U 13066AE  25202.90067272  .00005005  00000-0  37219-3 0  9999
2 39444  97.7851 164.9929 0040334 242.0800 117.6338 15.02798967630533
DTUSAT-2
1 40030U 14033W   25202.87679165  .00005954  00000-0  38381-3 0  9997
2 40030  98.0567 176.7601 0007421 278.4252  81.6134 15.08706723603287
EO-80
1 40032U 14033Y   25202.49691042  .00004525  00000-0  29223-3 0  9993
2 40032  98.0446 175.9584 0007617 208.4435 151.6377 15.08774992602693
LILACSAT-2
1 40908U 15049K   25202.79828379  .00010009  00000-0  25493-3 0  9990
2 40908  97.5049 224.1839 0009190  21.5591 338.6040 15.39726054544726
IO-86
1 40931U 15052B   25151.18580175  .00001241  00000-0  78118-4 0  9996
2 40931   6.0006  24.0987 0012733 338.8432  21.1169 14.78805930523047
Horyu-4
1 41340U 16012D   25202.34557526  .00017947  00000-0  45574-3 0  9996
2 41340  30.9947 210.7459 0006670 143.5963 216.5137 15.38366120519223
Lapan A3
1 41603U 16040E   25202.88160882  .00002698  00000-0  94909-4 0  9997
2 41603  97.1377 205.8363 0012730 114.7829 245.4739 15.30094161504252
CAS-2T
1 41847U 16066G   25202.47913614  .00000977  00000-0  14653-3 0  9994
2 41847  98.4187 276.5721 0346596  51.8938 311.2971 14.43600457457060
CAS-4B
1 42759U 17034B   25202.88361438  .00066907  00000-0  56270-3 0  9995
2 42759  43.0059  68.7644 0022139 231.1440 128.7451 15.68649716449230
CAS-4A
1 42761U 17034D   25202.87746581  .00075519  00000-0  59024-3 0  9992
2 42761  43.0097  65.4255 0023334 235.6443 124.2217 15.70328340449261
TechnoSat
1 42829U 17042E   25202.81983242  .00003489  00000-0  27040-3 0  9997
2 42829  97.3882   9.5017 0017255 134.7412 225.5221 15.01908422437069
AO-91
1 43017U 17073E   25202.61249519  .00007040  00000-0  35610-3 0  9990
2 43017  97.5204  72.3225 0171595  23.9572 336.9519 15.05342558415533
S-Net D
1 43186U 18014G   25202.72165734  .00003672  00000-0  21657-3 0  9994
2 43186  97.5588 105.1991 0010870  82.2301 278.0163 15.12143441408740
S-Net B
1 43187U 18014H   25202.72761409  .00003890  00000-0  22924-3 0  9996
2 43187  97.5594 105.1788 0011526  78.1155 282.1367 15.12123409408746
S-Net A
1 43188U 18014J   25202.72190331  .00003672  00000-0  21647-3 0  9996
2 43188  97.5601 105.3287 0011439  78.7690 281.4826 15.12148582408746
S-Net C
1 43189U 18014K   25202.73012886  .00003976  00000-0  23418-3 0  9991
2 43189  97.5617 105.3584 0012850  72.0265 288.2365 15.12119409407295
Ten-Koh
1 43677U 18084G   25202.47018520  .00001806  00000-0  14757-3 0  9998
2 43677  98.0843  16.3835 0008961 120.2253 239.9858 15.00725263366523
PO-101
1 43678U 18084H   25202.85951420  .00001680  00000-0  14581-3 0  9991
2 43678  98.1072  20.6051 0009086 134.9725 225.2234 14.98490877366715
QO-100
1 43700U 18090A   25202.48838301  .00000141  00000-0  00000-0 0  9994
2 43700   0.0206  80.4923 0002624  84.1701 336.4462  1.00274015 24368
MinXSS-2
1 43758U 18099A   25202.74850053  .00012236  00000-0  46647-3 0  9991
2 43758  97.5005 268.9464 0011270  15.5815 344.5768 15.26784507363408
AO-95
1 43770U 18099N   25202.12391557  .00007219  00000-0  35943-3 0  9998
2 43770  97.4894 259.7603 0011894  72.6600 287.5934 15.17830101362859
RANGE-A
1 43773U 18099R   25202.36976264  .00003003  00000-0  19152-3 0  9992
2 43773  97.4459 249.5614 0012431  54.5812 305.6576 15.09393519362526
MOVE-II
1 43780U 18099Y   25194.80194206  .15913345  26116-5  37118-3 0  9995
2 43780  97.4526 273.8800 0018736 270.1080  89.8075 16.44566529363241
SNUSat 2
1 43782U 18099AA  25202.68313408  .00005542  00000-0  29897-3 0  9999
2 43782  97.4577 256.7189 0011986  16.6296 343.5327 15.15103449362874
SnugLite
1 43784U 18099AC  25202.60630585  .00006752  00000-0  33357-3 0  9991
2 43784  97.4392 256.2919 0003814  37.0434 323.1063 15.18176491363017
ITASat 1
1 43786U 18099AE  25202.60415971  .00004739  00000-0  26868-3 0  9995
2 43786  97.4548 256.0259 0015643  65.3508 294.9350 15.13354961362812
EAGLET 1
1 43790U 18099AJ  25202.58606911  .00002711  00000-0  17354-3 0  9991
2 43790  97.4740 255.8237 0013098  51.2599 308.9798 15.09335296362402
ESEO
1 43792U 18099AL  25202.68627177  .00001853  00000-0  14289-3 0  9991
2 43792  97.4427 248.6151 0012807  22.0511 338.1263 15.02725546362145
CSIM
1 43793U 18099AM  25202.79691249  .00311649  37592-4  10739-2 0  9997
2 43793  97.4743 284.3213 0002939 262.2501  97.8438 15.89557289364311
JO-97
1 43803U 18099AX  25202.61700957  .00008271  00000-0  36936-3 0  9999
2 43803  97.4645 261.3331 0007059  11.5607 348.5790 15.21593186363161
Suomi 100
1 43804U 18099AY  25202.43720760  .00007089  00000-0  34116-3 0  9998
2 43804  97.4710 260.3288 0011973  10.1895 349.9579 15.19020478363053
ISAT
1 43879U 18111D   25202.72888599  .00016870  00000-0  56081-3 0  9995
2 43879  97.5926 118.0865 0010213  59.3884 300.8362 15.31207981358122
UWE-4
1 43880U 18111E   25202.75845537  .00011941  00000-0  45371-3 0  9999
2 43880  97.5873 116.2914 0013557  67.5067 292.7605 15.26877182358060
Sparrow
1 43881U 18111F   25202.74107857  .00017049  00000-0  54418-3 0  9992
2 43881  97.6076 121.1445 0009025  91.7525 268.4750 15.32524201358243
Prox-1
1 44339U 19036A   25202.54666824  .00009001  00000-0  11123-2 0  9994
2 44339  23.9955 145.9798 0007567 189.5412 170.4942 14.80613021324334
SONATE
1 44400U 19038Q   25185.47540524  .09032085  27445-5  31847-3 0  9995
2 44400  97.6609 216.4776 0012462 246.7970 113.2018 16.43248376333575
Taurus 1
1 44530U 19059C   25202.83727052  .00004598  00000-0  84383-3 0  9990
2 44530  98.6102 344.2563 0008172 260.0650  99.9630 14.66222788310138
Duchifat 3
1 44854U 19089C   25202.80316063  .00041703  00000-0  72794-3 0  9997
2 44854  36.9420  86.0937 0007118 298.5540  61.4501 15.49698204309494
TO-108
1 44881U 19093C   25202.85736978  .00000757  00000-0  93380-4 0  9997
2 44881  97.7911 277.6219 0015261  92.9811 267.3151 14.85668976302358
